Lid_Strength_Index
1 -0 -0 -1 -1 -1 -1 -1 -1 -1 -1 -1 -1 -1 -1 -1 -1 -1 -1 -1 -2 -1 -1 -1 -1 -1 -2 -2 -1 -2 -2 -1 -1 -1 -1 -2 -1 -2 -1 -2 -2 -1 -2
-0 -0 -0 -1 -1 -1 -1 -1 -1 -1 -1 -1 -1 -1 -1 -1 -1 -1 -1 -1 -1 -1 -1 -1 -1 -1 -1 -1 -2 -2 -2 -2 -1 -1 -2 -2 -1 -1 -2 -2 -2 -1 -1
0 -0 -0 -1 -1 -1 -1 -1 -1 -1 -1 -1 -1 -1 -1 -1 -1 -1 -1 -1 -2 -2 -1 -1 -1 -1 -1 -1 -1 -1 -1 -1 -1 -1 -2 -0 -0 -1 -2 -1 -2 -1 -1
-0 -0 -0 -1 -1 -1 -1 -1 -1 -1 -1 -1 -1 -1 -1 -1 -1 -1 -1 -1 -1 -1 -1 -1 -1 -1 -1 -1 -1 -1 -1 -1 -1 -1 -1 -1 -1 -2 -1 -1 -1 -1 -1
-0 -0 -1 -0 -1 -1 -1 -1 -1 -1 -1 -1 -1 -1 -1 -1 -1 -1 -1 -1 -1 -1 -1 -1 -1 -1 -1 -1 -1 -1 -1 -1 -1 -1 0 -0 -0 -1 -1 -1 -1 -1 -2
-0 -0 -0 -0 -1 -1 -1 -1 -1 -1 -1 -1 -1 -1 -1 -1 -1 -1 -1 -1 -1 -1 -1 -1 -1 -1 -1 -1 -1 -1 -1 -1 -1 0 1 -0 -0 -2 -2 -1 -2 -2 -1
0 -0 -0 -0 -0 -1 -1 -1 -1 -1 -1 -1 -1 -1 -1 -1 -1 -1 -1 -1 -1 -1 -1 -1 -1 -1 -1 -1 -1 -1 -1 -1 -1 0 1 0 -0 -2 -2 -1 -2 -2 -2
1 0 -0 -1 -1 -1 -1 -1 -1 -1 -1 -1 -1 -1 -1 -1 -1 -1 -1 -1 -1 -1 -1 -1 -1 -1 -1 -1 -1 -1 -1 -1 -1 0 1 0 -1 -2 -2 -1 -2 -2 -2
1 1 1 0 -1 -1 -1 -1 -1 -1 -1 -1 -1 -1 -1 -1 -1 -1 -1 -1 -1 -1 -1 -1 -1 -1 -1 -1 -1 -1 -1 -1 0 -0 -0 -0 -2 -2 -2 -2 -2 -2 -2
2 2 2 1 1 1 0 -1 -1 -1 -1 -1 -1 -1 -1 -1 -1 -1 -1 -1 -1 -1 -1 -1 -1 -1 -1 -1 -1 -1 -1 -1 0 0 0 -0 -1 -2 -2 -2 -2 -2 -2
1 1 2 2 1 1 1 -1 -1 -1 -1 -1 -1 -1 -1 -0 -0 -1 -1 -1 -1 -1 -1 -1 -1 -1 -1 -1 -1 -1 -1 -0 0 -0 0 -1 -1 -2 -2 -2 -2 -2 -2
3 3 2 1 2 2 0 1 1 0 0 -0 -0 -0 -0 0 0 -1 -1 -0 -1 -1 -1 -1 -1 -1 -1 0 0 -1 -0 -0 -0 0 0 -1 -1 -2 -2 -2 -2 -2 -2
5 4 3 3 2 2 1 1 1 -1 -1 -1 -0 0 -0 -1 0 0 -0 -0 0 -0 -0 -0 -0 -0 -0 1 1 1 -0 -0 0 0 0 -1 -2 -2 -2 -2 -2 -2 -2
6 6 4 3 3 2 2 1 2 3 2 3 3 3 2 1 1 0 0 1 1 0 0 1 1 0 1 2 1 2 1 0 0 0 1 -0 -1 -2 -2 -2 -2 -2 -1
7 7 6 5 4 3 1 1 2 3 4 4 4 4 4 4 3 2 1 0 0 0 1 1 1 1 1 1 1 1 1 1 1 0 1 -0 -1 -1 -2 -2 -2 -2 -2
8 7 6 4 3 2 1 1 1 3 3 4 4 5 5 5 4 3 3 4 4 2 0 -0 0 0 1 1 1 1 1 1 1 1 0 0 0 -1 -1 -2 -1 -1 -2
7 6 6 5 4 3 1 1 1 1 1 1 2 3 4 5 5 5 5 5 5 3 3 3 3 1 0 0 1 2 2 2 1 1 0 0 0 1 -0 -1 -1 -1 -1
7 7 6 5 5 4 2 1 1 1 2 2 2 1 2 3 4 4 5 5 5 5 4 5 4 4 3 1 1 0 1 1 1 2 2 2 1 1 0 -0 -1 -1 -1
7 6 6 6 6 5 4 1 1 2 2 3 3 3 2 2 3 3 3 4 4 4 5 5 5 4 4 4 3 1 0 0 0 0 1 2 2 2 1 1 1 1 -1
7 7 7 6 6 5 5 4 4 3 2 3 3 4 3 3 3 2 2 3 3 4 5 5 5 4 3 5 3 2 3 1 0 0 0 -0 0 1 1 1 1 1 2
8 8 7 7 7 6 6 6 6 6 5 4 4 4 5 5 4 4 4 5 5 6 5 5 6 5 4 4 4 4 3 1 4 4 2 1 2 2 2 1 1 1 1
9 8 8 8 7 7 6 6 5 5 5 5 4 5 6 6 6 5 5 5 6 6 6 5 5 6 5 4 5 5 5 3 4 4 1 2 5 2 1 1 3 1 1
9 8 8 7 7 7 6 6 6 6 6 6 6 6 5 5 5 5 5 5 5 6 6 6 5 6 6 5 4 5 7 7 6 3 3 2 5 3 3 5 3 2 2
8 8 7 7 8 6 6 7 7 7 8 7 6 6 5 5 5 5 5 5 6 6 6 6 5 6 7 7 6 4 5 6 7 9 5 5 4 4 4 5 4 3 3
8 8 8 7 7 7 7 7 7 8 7 6 6 7 6 6 6 5 5 6 6 6 6 6 6 6 6 6 6 6 6 7 6 7 9 7 6 5 5 4 4 6 3
8 8 8 8 8 7 6 6 7 7 7 7 7 7 7 6 6 6 5 6 6 6 6 6 6 6 7 6 6 6 7 7 7 7 9 8 7 6 6 6 6 4 6